Location: San Martino di Castrozza
(46.2667°N, 11.8000°E)
Time: 15:29:41
(UTC+00:00)

USA 306 - Pass Details

Date: 23 April 2021
Orbit: 565 x 575 km, 54.0° (Epoch: 11 May)

Event Time Altitude Azimuth Distance (km) Brightness Sun altitude
Rises 02:56:49 0° 302° (WNW) 2,784 6.2 -12.5°
Reaches altitude 10° 02:59:06 10° 306° (NW) 1,885 5.3 -12.1°
Maximum altitude 03:03:22 64° 28° (NNE) 638 3.4 -11.5°
Drops below altitude 10° 03:07:37 10° 111° (ESE) 1,881 6.1 -10.9°
Sets 03:09:53 0° 114° (ESE) 2,777 6.9 -10.6°
